GW2440 Weather Reports


Display with metric or nautical units.
time (UTC)temp
F
wind
direction
speed
MPH
gust
MPH
rain 1hr
in
rain 24hr
in
rain mn
in
humidity
%
barometer
mb
20260904213750 84 57 1.0 2.0 0.00 0.00 0.00 89 1015.8
20260904213246 84 25 2.0 2.0 0.00 0.00 0.00 87 1015.5
20260904212742 84 169 7.0 8.0 0.00 0.00 0.00 85 1015.8
20260904212242 84 232 8.0 10.0 0.00 0.00 0.00 85 1015.2
20260904211737 83 214 2.0 2.0 0.00 0.00 0.00 87 1015.2
20260904211231 82 249 3.0 3.0 0.00 0.00 0.00 92 1015.2
20260904210727 82 237 3.0 5.0 0.00 0.00 0.00 94 1015.5
20260904210221 83 263 1.0 2.0 0.00 0.00 0.00 92 1015.5
20260904205718 84 250 5.0 7.0 0.00 0.00 0.00 88 1015.5
20260904205214 86 255 4.0 5.0 0.00 0.00 0.00 86 1015.5
20260904204710 87 227 6.0 7.0 0.00 0.00 0.00 79 1015.5
20260904204206 92 208 6.0 8.0 0.00 0.00 0.00 72 1015.5
20260904203702 92 186 4.0 5.0 0.00 0.00 0.00 67 1015.2
20260904203158 92 175 3.0 6.0 0.00 0.00 0.00 68 1015.2
20260904202653 93 89 4.0 6.0 0.00 0.00 0.00 67 1014.8
20260904202150 93 113 2.0 2.0 0.00 0.00 0.00 66 1014.8
20260904201644 92 178 2.0 3.0 0.00 0.00 0.00 68 1015.2
20260904201139 92 181 2.0 2.0 0.00 0.00 0.00 69 1015.2
20260904200638 92 185 3.0 3.0 0.00 0.00 0.00 69 1015.2
20260904200133 92 148 6.0 8.0 0.00 0.00 0.00 70 1015.2
20260904195632 93 187 3.0 6.0 0.00 0.00 0.00 69 1015.2
20260904195132 93 165 1.0 1.0 0.00 0.00 0.00 68 1015.2
20260904194625 93 59 3.0 3.0 0.00 0.00 0.00 70 1015.2
20260904194120 94 150 1.0 1.0 0.00 0.00 0.00 68 1015.5
20260904193615 94 132 3.0 5.0 0.00 0.00 0.00 69 1015.2
20260904193112 93 168 5.0 6.0 0.00 0.00 0.00 69 1015.5
20260904192611 93 185 3.0 5.0 0.00 0.00 0.00 69 1015.5
20260904192107 94 191 8.0 9.0 0.00 0.00 0.00 68 1016.2
20260904191604 94 124 4.0 7.0 0.00 0.00 0.00 68 1015.8
20260904191100 93 107 2.0 3.0 0.00 0.00 0.00 69 1016.2
20260904190555 93 169 2.0 3.0 0.00 0.00 0.00 69 1015.8
20260904190051 92 220 1.0 2.0 0.00 0.00 0.00 71 1015.8
20260904185548 91 179 2.0 2.0 0.00 0.00 0.00 71 1016.2
20260904185042 91 195 4.0 5.0 0.00 0.00 0.00 71 1016.2
20260904184536 92 105 1.0 2.0 0.00 0.00 0.00 71 1016.2
20260904184032 93 204 3.0 3.0 0.00 0.00 0.00 69 1016.2
20260904183527 94 179 4.0 6.0 0.00 0.00 0.00 68 1016.9
20260904183022 93 176 2.0 2.0 0.00 0.00 0.00 72 1016.5
20260904182517 92 190 7.0 8.0 0.00 0.00 0.00 71 1016.9
20260904182011 93 134 1.0 1.0 0.00 0.00 0.00 70 1016.9
20260904181508 92 166 1.0 2.0 0.00 0.00 0.00 72 1016.9
20260904181002 92 203 3.0 5.0 0.00 0.00 0.00 71 1016.9
20260904180501 93 183 1.0 3.0 0.00 0.00 0.00 71 1016.9
20260904175956 93 199 1.0 2.0 0.00 0.00 0.00 69 1017.2
20260904175455 93 160 1.0 2.0 0.00 0.00 0.00 71 1017.2
20260904174950 92 170 2.0 3.0 0.00 0.00 0.00 72 1017.2
20260904174445 92 100 1.0 2.0 0.00 0.00 0.00 70 1016.9
20260904173942 92 182 3.0 3.0 0.00 0.00 0.00 70 1017.2
20260904173442 93 213 4.0 5.0 0.00 0.00 0.00 71 1017.5
20260904172937 92 98 2.0 2.0 0.00 0.00 0.00 71 1017.5
20260904172432 91 163 0.0 1.0 0.00 0.00 0.00 72 1017.5
20260904171926 91 154 3.0 3.0 0.00 0.00 0.00 71 1017.9
20260904171422 92 190 5.0 6.0 0.00 0.00 0.00 70 1017.5
20260904170918 92 226 5.0 6.0 0.00 0.00 0.00 71 1017.9
20260904170413 91 157 2.0 3.0 0.00 0.00 0.00 71 1017.5
20260904165908 91 211 3.0 3.0 0.00 0.00 0.00 73 1017.9
20260904165407 91 187 3.0 3.0 0.00 0.00 0.00 73 1017.9
20260904164907 92 118 3.0 5.0 0.00 0.00 0.00 72 1017.9
20260904164407 91 181 0.0 1.0 0.00 0.00 0.00 74 1017.9
20260904163903 91 197 1.0 1.0 0.00 0.00 0.00 72 1017.9
20260904163403 92 120 5.0 6.0 0.00 0.00 0.00 72 1017.9
20260904162902 91 151 3.0 3.0 0.00 0.00 0.00 73 1017.9
20260904162358 92 191 7.0 8.0 0.00 0.00 0.00 71 1017.9
20260904161853 91 171 3.0 5.0 0.00 0.00 0.00 74 1017.9
20260904161348 90 204 2.0 3.0 0.00 0.00 0.00 76 1018.2
20260904160843 91 209 3.0 3.0 0.00 0.00 0.00 75 1018.2
20260904160339 89 198 2.0 2.0 0.00 0.00 0.00 77 1018.2
20260904155834 89 258 3.0 3.0 0.00 0.00 0.00 77 1018.2
20260904155328 89 193 3.0 3.0 0.00 0.00 0.00 78 1018.2
20260904154827 89 156 4.0 5.0 0.00 0.00 0.00 76 1018.2
20260904154321 89 210 5.0 6.0 0.00 0.00 0.00 78 1018.2
20260904153817 89 209 3.0 3.0 0.00 0.00 0.00 78 1018.6
20260904153312 89 186 4.0 6.0 0.00 0.00 0.00 78 1018.2
20260904152809 88 214 5.0 6.0 0.00 0.00 0.00 78 1018.6
20260904152306 89 180 4.0 6.0 0.00 0.00 0.00 80 1018.6
20260904151759 89 196 3.0 5.0 0.00 0.00 0.00 77 1018.6
20260904151257 89 242 5.0 7.0 0.00 0.00 0.00 78 1018.2
20260904150754 88 152 3.0 3.0 0.00 0.00 0.00 80 1018.2
20260904150249 88 187 4.0 5.0 0.00 0.00 0.00 81 1018.2
20260904145746 88 198 2.0 2.0 0.00 0.00 0.00 82 1018.2
20260904145242 87 235 4.0 6.0 0.00 0.00 0.00 83 1018.2
20260904144738 87 225 5.0 6.0 0.00 0.00 0.00 83 1018.2
20260904144234 87 168 1.0 1.0 0.00 0.00 0.00 84 1017.9
20260904143729 87 234 3.0 3.0 0.00 0.00 0.00 84 1017.9
20260904143226 88 223 3.0 5.0 0.00 0.00 0.00 84 1018.2
20260904142722 87 149 1.0 1.0 0.00 0.00 0.00 85 1017.9
20260904142217 87 186 1.0 2.0 0.00 0.00 0.00 85 1018.2
20260904141717 86 221 1.0 2.0 0.00 0.00 0.00 87 1018.2
20260904141213 86 216 1.0 2.0 0.00 0.00 0.00 87 1017.9
20260904140708 86 242 5.0 5.0 0.00 0.00 0.00 87 1017.9
20260904140203 86 239 3.0 3.0 0.00 0.00 0.00 86 1017.9
20260904135702 85 240 3.0 5.0 0.00 0.00 0.00 88 1017.9
20260904135157 85 199 1.0 1.0 0.00 0.00 0.00 89 1017.9
20260904134653 84 155 1.0 2.0 0.00 0.00 0.00 89 1017.5
20260904134152 84 201 3.0 3.0 0.00 0.00 0.00 90 1017.9
20260904133647 84 163 3.0 3.0 0.00 0.00 0.00 91 1017.5
20260904133143 83 233 3.0 3.0 0.00 0.00 0.00 92 1017.9
20260904132643 83 227 3.0 3.0 0.00 0.00 0.00 92 1017.9
20260904132138 83 209 2.0 2.0 0.00 0.00 0.00 92 1017.5
20260904131637 82 207 2.0 2.0 0.00 0.00 0.00 93 1017.5
20260904131133 82 186 1.0 1.0 0.00 0.00 0.00 93 1017.5
20260904130632 82 191 1.0 2.0 0.00 0.00 0.00 94 1017.5
20260904130127 82 141 2.0 2.0 0.00 0.00 0.00 94 1017.5
20260904125624 81 208 1.0 1.0 0.00 0.00 0.00 95 1017.5
20260904125119 81 205 2.0 2.0 0.00 0.00 0.00 96 1017.5
20260904124614 81 170 2.0 2.0 0.00 0.00 0.00 97 1017.5
20260904124109 81 181 1.0 1.0 0.00 0.00 0.00 97 1017.9
20260904123604 80 174 0.0 0.0 0.00 0.00 0.00 97 1017.5
20260904123100 80 173 0.0 0.0 0.00 0.00 0.00 97 1017.5
20260904122600 80 181 0.0 0.0 0.00 0.00 0.00 98 1017.5
20260904122055 79 155 0.0 0.0 0.00 0.00 0.00 99 1017.5
20260904121550 79 174 1.0 2.0 0.00 0.00 0.00 99 1017.5
20260904121046 79 176 0.0 0.0 0.00 0.00 0.00 99 1017.2
20260904120542 78 166 0.0 0.0 0.00 0.00 0.00 99 1017.2
20260904120037 77 120 0.0 0.0 0.00 0.00 0.00 99 1017.2
20260904115532 77 110 0.0 0.0 0.00 0.00 0.00 99 1017.2
20260904115027 76 123 0.0 0.0 0.00 0.00 0.00 99 1017.2
20260904114522 76 123 0.0 0.0 0.00 0.00 0.00 99 1017.2
20260904114021 76 124 0.0 0.0 0.00 0.00 0.00 99 1017.2
20260904113516 76 124 0.0 0.0 0.00 0.00 0.00 99 1016.9
20260904113016 76 124 0.0 0.0 0.00 0.00 0.00 99 1016.9
20260904112511 75 124 0.0 0.0 0.00 0.00 0.00 99 1016.9
20260904112007 75 124 0.0 0.0 0.00 0.00 0.00 99 1016.9
20260904111503 75 124 0.0 0.0 0.00 0.00 0.00 99 1016.9
20260904110958 75 124 0.0 0.0 0.00 0.00 0.00 99 1016.5
20260904110457 75 124 0.0 0.0 0.00 0.00 0.00 99 1016.5
20260904105953 75 124 0.0 0.0 0.00 0.00 0.00 99 1016.5
20260904105452 75 124 0.0 0.0 0.00 0.00 0.00 99 1016.5
20260904104947 75 124 0.0 0.0 0.00 0.00 0.00 99 1016.5
20260904104442 75 124 0.0 0.0 0.00 0.00 0.00 99 1016.2
20260904103933 75 124 0.0 0.0 0.00 0.00 0.00 99 1016.2
20260904103428 75 124 0.0 0.0 0.00 0.00 0.00 99 1016.5
20260904102924 75 124 0.0 0.0 0.00 0.00 0.00 99 1016.5
20260904102420 75 124 0.0 0.0 0.00 0.00 0.00 99 1016.2
20260904101915 76 124 0.0 0.0 0.00 0.00 0.00 99 1016.2
20260904101412 76 124 0.0 0.0 0.00 0.00 0.00 99 1016.2
20260904100907 76 124 0.0 0.0 0.00 0.00 0.00 99 1016.2
20260904100402 75 124 0.0 0.0 0.00 0.00 0.00 99 1016.2
20260904095857 76 124 0.0 0.0 0.00 0.00 0.00 99 1016.2
20260904095352 76 124 0.0 0.0 0.00 0.00 0.00 99 1016.2
20260904094847 76 124 0.0 0.0 0.00 0.00 0.00 99 1016.2
20260904094342 76 124 0.0 0.0 0.00 0.00 0.00 99 1016.2
20260904093838 76 124 0.0 0.0 0.00 0.00 0.00 99 1016.2
20260904093338 76 124 0.0 0.0 0.00 0.00 0.00 99 1016.2
20260904092833 76 124 0.0 0.0 0.00 0.00 0.00 99 1016.2
20260904092330 76 123 0.0 0.0 0.00 0.00 0.00 99 1016.2
20260904091826 76 123 0.0 0.0 0.00 0.00 0.00 99 1015.8
20260904091321 76 123 0.0 0.0 0.00 0.00 0.00 99 1016.2
20260904090816 76 123 0.0 0.0 0.00 0.00 0.00 99 1016.2
20260904090312 76 123 0.0 0.0 0.00 0.00 0.00 99 1016.2
20260904085807 76 123 0.0 0.0 0.00 0.00 0.00 99 1015.8
20260904085305 76 123 0.0 0.0 0.00 0.00 0.00 99 1015.8
20260904084756 76 123 0.0 0.0 0.00 0.00 0.00 99 1016.2
20260904084252 76 127 0.0 0.0 0.00 0.00 0.00 99 1015.8
20260904083748 76 126 0.0 0.0 0.00 0.00 0.00 99 1016.2
20260904083245 76 126 0.0 0.0 0.00 0.00 0.00 99 1016.2
20260904082745 76 127 0.0 0.0 0.00 0.00 0.00 99 1015.8
20260904082240 76 127 0.0 0.0 0.00 0.00 0.00 99 1015.8
20260904081735 76 127 0.0 0.0 0.00 0.00 0.00 99 1015.8
20260904081231 76 127 0.0 0.0 0.00 0.00 0.00 99 1016.2
20260904080726 76 127 0.0 0.0 0.00 0.00 0.00 99 1015.8
20260904080222 77 127 0.0 0.0 0.00 0.00 0.00 99 1015.8
20260904075718 77 126 0.0 0.0 0.00 0.00 0.00 99 1015.5
20260904075213 76 126 0.0 0.0 0.00 0.00 0.00 99 1015.8
20260904074712 76 126 0.0 0.0 0.00 0.00 0.00 99 1015.8
20260904074206 77 126 0.0 0.0 0.00 0.00 0.00 99 1015.8
20260904073702 77 126 0.0 0.0 0.00 0.00 0.00 99 1015.5
20260904073158 77 126 0.0 0.0 0.00 0.00 0.00 99 1015.5
20260904072653 77 126 0.0 0.0 0.00 0.00 0.00 99 1015.8
20260904072148 77 126 0.0 0.0 0.00 0.00 0.00 99 1015.5
20260904071644 77 126 0.0 0.0 0.00 0.00 0.00 99 1015.8
20260904071139 77 125 0.0 0.0 0.00 0.00 0.00 99 1015.5
20260904070637 77 126 0.0 0.0 0.00 0.00 0.00 99 1015.8
20260904070132 77 126 0.0 0.0 0.00 0.00 0.00 99 1015.5
20260904065632 77 126 0.0 0.0 0.00 0.00 0.00 99 1015.8
20260904065130 77 126 0.0 0.0 0.00 0.00 0.00 99 1015.5
20260904064624 77 125 0.0 0.0 0.00 0.00 0.00 99 1015.5
20260904064119 77 81 0.0 0.0 0.00 0.00 0.00 99 1015.8
20260904063615 77 116 0.0 0.0 0.00 0.00 0.00 99 1015.8
20260904063110 77 135 0.0 0.0 0.00 0.00 0.00 99 1016.2
20260904062607 77 137 0.0 0.0 0.00 0.00 0.00 99 1015.8
20260904062102 77 139 0.0 0.0 0.00 0.00 0.00 99 1015.8
20260904061557 77 115 0.0 0.0 0.00 0.00 0.00 99 1016.2
20260904061054 78 101 0.0 0.0 0.00 0.00 0.00 99 1016.2
20260904060550 78 135 0.0 0.0 0.00 0.00 0.00 99 1016.2
20260904060046 78 162 0.0 0.0 0.00 0.00 0.00 99 1016.2
20260904055546 78 177 0.0 0.0 0.00 0.00 0.00 99 1016.2
20260904055041 78 169 0.0 0.0 0.00 0.00 0.00 99 1016.2
20260904054537 78 115 0.0 0.0 0.00 0.00 0.00 99 1016.2
20260904054033 78 121 0.0 0.0 0.00 0.00 0.00 99 1016.5
20260904053532 78 114 0.0 0.0 0.00 0.00 0.00 99 1016.5
20260904053027 78 140 0.0 0.0 0.00 0.00 0.00 99 1016.5
20260904052524 78 128 0.0 0.0 0.00 0.00 0.00 99 1016.5
20260904052020 77 128 0.0 0.0 0.00 0.00 0.00 99 1016.9
20260904051516 77 128 0.0 0.0 0.00 0.00 0.00 99 1016.5
20260904051015 78 128 0.0 0.0 0.00 0.00 0.00 99 1016.9
20260904050512 77 128 0.0 0.0 0.00 0.00 0.00 99 1016.5
20260904050007 77 151 0.0 0.0 0.00 0.00 0.00 99 1016.9
20260904045502 77 151 0.0 0.0 0.00 0.00 0.00 99 1016.9
20260904044956 77 153 0.0 0.0 0.00 0.00 0.00 99 1016.9
20260904044452 77 153 0.0 0.0 0.00 0.00 0.00 99 1016.9
20260904043943 77 153 0.0 0.0 0.00 0.00 0.00 99 1016.9
20260904043439 77 157 0.0 0.0 0.00 0.00 0.00 99 1016.9
20260904042935 77 160 0.0 0.0 0.00 0.00 0.00 99 1017.2
20260904042431 77 160 0.0 0.0 0.00 0.00 0.00 99 1017.2
20260904041925 77 160 0.0 0.0 0.00 0.00 0.00 99 1016.9
20260904041422 77 131 0.0 0.0 0.00 0.00 0.00 99 1016.9
20260904040918 78 131 0.0 0.0 0.00 0.00 0.00 99 1016.9
20260904040412 78 131 0.0 0.0 0.00 0.00 0.00 99 1016.9
20260904035908 78 131 0.0 0.0 0.00 0.14 0.14 99 1016.9
20260904035404 78 131 0.0 0.0 0.00 0.14 0.14 99 1016.5
20260904034903 78 131 0.0 0.0 0.00 0.14 0.14 99 1016.9
20260904034358 78 131 0.0 0.0 0.00 0.14 0.14 99 1016.9
20260904033854 78 131 0.0 0.0 0.00 0.14 0.14 99 1016.9
20260904033350 78 131 0.0 0.0 0.00 0.14 0.14 99 1016.9
20260904032846 78 131 0.0 0.0 0.00 0.14 0.14 99 1016.5
20260904032340 78 138 0.0 0.0 0.00 0.14 0.14 98 1016.5
20260904031834 78 139 0.0 0.0 0.00 0.14 0.14 98 1016.5
20260904031330 78 138 0.0 0.0 0.00 0.14 0.14 98 1016.5
20260904030826 79 138 0.0 0.0 0.00 0.14 0.14 98 1016.5
20260904030321 79 138 0.0 0.0 0.00 0.14 0.14 98 1016.5
20260904025817 79 158 0.0 0.0 0.00 0.14 0.14 97 1016.5
20260904025313 79 159 0.0 0.0 0.00 0.14 0.14 97 1016.9
20260904024813 79 153 0.0 0.0 0.00 0.14 0.14 96 1016.5
20260904024308 79 158 0.0 0.0 0.00 0.14 0.14 96 1016.9
20260904023805 79 168 0.0 0.0 0.00 0.14 0.14 96 1016.2
20260904023300 79 97 2.0 3.0 0.00 0.14 0.14 96 1016.5
20260904022759 79 83 2.0 2.0 0.00 0.14 0.14 96 1016.5
20260904022256 80 121 0.0 1.0 0.00 0.14 0.14 97 1016.9
20260904021753 80 145 2.0 2.0 0.00 0.14 0.14 97 1016.5
20260904021247 80 144 1.0 2.0 0.00 0.14 0.14 97 1016.5
20260904020743 80 181 1.0 2.0 0.00 0.14 0.14 97 1016.5
20260904020242 80 153 1.0 1.0 0.00 0.14 0.14 98 1016.9
20260904015741 80 148 0.0 1.0 0.00 0.14 0.14 97 1016.9
20260904015237 80 100 1.0 2.0 0.00 0.14 0.14 97 1016.9
20260904014735 80 114 1.0 2.0 0.00 0.14 0.14 98 1016.9
20260904014230 80 129 2.0 2.0 0.00 0.14 0.14 98 1016.5
20260904013726 80 86 2.0 2.0 0.00 0.14 0.14 98 1016.5
20260904013222 80 128 2.0 2.0 0.00 0.14 0.14 98 1016.9
20260904012717 80 39 1.0 1.0 0.00 0.14 0.14 99 1016.9
20260904012211 80 116 0.0 1.0 0.00 0.14 0.14 99 1016.9
20260904011711 80 66 2.0 2.0 0.00 0.14 0.14 99 1016.9
20260904011207 81 85 1.0 1.0 0.00 0.14 0.14 98 1016.5
20260904010707 81 96 1.0 2.0 0.00 0.14 0.14 98 1016.5
20260904010204 81 52 1.0 2.0 0.00 0.14 0.14 98 1016.5
20260904005659 81 57 1.0 2.0 0.00 0.14 0.14 98 1016.5
20260904005155 81 84 3.0 3.0 0.00 0.14 0.14 98 1016.5
20260904004649 81 85 3.0 3.0 0.00 0.14 0.14 98 1016.5
20260904004143 81 168 0.0 1.0 0.00 0.14 0.14 98 1016.5
20260904003634 81 104 0.0 0.0 0.00 0.14 0.14 98 1016.5
20260904003130 81 149 0.0 0.0 0.00 0.14 0.14 98 1016.5
20260904002626 81 124 1.0 1.0 0.00 0.14 0.14 98 1016.5
20260904002126 81 149 0.0 0.0 0.00 0.14 0.14 98 1016.5
20260904001621 81 126 3.0 5.0 0.00 0.14 0.14 97 1016.2
20260904001120 81 122 0.0 0.0 0.00 0.14 0.14 97 1016.2
20260904000615 81 87 2.0 2.0 0.00 0.14 0.14 97 1015.8
20260904000111 81 132 1.0 2.0 0.00 0.14 0.14 97 1016.2
20260903235610 81 70 1.0 2.0 0.00 0.14 0.14 97 1016.2
20260903235107 81 55 1.0 2.0 0.00 0.14 0.14 97 1016.2
20260903234601 81 81 2.0 2.0 0.00 0.14 0.14 96 1016.2
20260903234057 81 60 1.0 1.0 0.00 0.14 0.14 96 1016.2
20260903233553 81 95 2.0 2.0 0.00 0.14 0.14 96 1016.2
20260903233048 82 104 3.0 5.0 0.00 0.14 0.14 96 1016.2
20260903232543 82 117 3.0 3.0 0.00 0.14 0.14 96 1016.2
20260903232039 82 143 3.0 3.0 0.00 0.14 0.14 96 1016.2
20260903231533 82 193 1.0 1.0 0.00 0.14 0.14 96 1016.2
20260903231027 82 162 0.0 1.0 0.00 0.14 0.14 95 1015.8
20260903230524 82 148 1.0 2.0 0.00 0.14 0.14 95 1015.8
20260903230022 82 157 1.0 1.0 0.00 0.14 0.14 95 1015.8
20260903225520 82 166 3.0 3.0 0.00 0.14 0.14 95 1015.8
20260903225016 82 64 3.0 5.0 0.00 0.14 0.14 94 1015.8
20260903224512 82 78 1.0 3.0 0.00 0.14 0.14 94 1015.8
20260903224008 82 92 5.0 7.0 0.00 0.14 0.14 94 1016.2
20260903223507 82 90 1.0 2.0 0.00 0.14 0.14 94 1015.8
20260903223006 82 123 1.0 1.0 0.00 0.14 0.14 94 1015.5
20260903222501 82 45 3.0 5.0 0.00 0.14 0.14 93 1015.8
20260903222000 82 60 2.0 2.0 0.00 0.14 0.14 94 1015.8
20260903221455 82 151 1.0 2.0 0.00 0.14 0.14 94 1015.8
20260903220953 82 87 1.0 2.0 0.00 0.14 0.14 94 1015.5
20260903220447 82 109 3.0 5.0 0.00 0.14 0.14 94 1015.5
20260903215944 82 47 5.0 6.0 0.00 0.14 0.14 93 1015.2
20260903215442 82 122 2.0 2.0 0.00 0.14 0.14 94 1015.2
20260903214939 82 41 5.0 7.0 0.00 0.14 0.14 94 1015.2
20260903214435 83 49 6.0 7.0 0.00 0.14 0.14 94 1015.2